User: anonymous   Login
Location: Langangen
(59.1000°N, 9.8000°E)
Time: 02:56:09
(UTC+02:00)
Language:

Iridium 60 - Orbit

View from above orbital plane
View from above orbital plane
View from above satellite
View from above satellite

Ground track
Ground track

The orbit data is extracted from the following two-line orbital elements,

1 25276U 98019E   15186.49707390  .00000342  00000-0  11511-3 0  9990
2 25276 086.3955 224.8932 0002304 092.6477 267.4983 14.34216135903915
Epoch (UTC): 05 July 2015 11:55:47
Eccentricity: 0.0002304
inclination: 86.3955°
perigee height: 776 km
apogee height: 779 km
right ascension of ascending node: 224.8932°
argument of perigee: 92.6477°
revolutions per day: 14.34216135
mean anomaly at epoch: 267.4983°
orbit number at epoch: 90391

The dashed part of the orbit path shows where the satellite is in the earth's shadow,  

DLR